STARLINK-35378, 65794

Orbit data source: Space-Track

STARLINK-35378, 65794 is a payload satellite owned by SpaceX/Seattle (US) in SSO that was launched on Fri, 26 Sep 2025 UTC via an FALCON 9 launch vehicle from the Air Force Western Test Range (AFWTR). Payload-class satellites include a variety of spacecraft equipped with specific instruments for various scientific and technological missions. These include communications satellites like Starlink; space stations such as the ISS; scientific satellites like the Hubble; Earth observation satellites from companies like Planet Labs, Umbra, and HawkEye 360; GPS; miniature CubeSats for education and research; and military/defense satellites.

Loading next visibility...
Identifier
65794, 2025-218D
Orbit
SSO
Country
Flag of USUS
Related business
Manufacturer
SpaceX/Seattle
Mission
Operational Commercial Communications
Bus & Motor
STARLINK V2MO, Unknown motor
Mass
575 kg wet, ~530 kg dry
Launch date (UTC)
2025-09-26 (9 months ago)
Launch vehicle
FALCON 9
Launch site
Air Force Western Test Range (AFWTR)
Object type
Payload
Rocket body
Debris
Shape & HBR
Box + 2 Pan, 17.7 m
Radar Cross Section
36.964 m², Large (>1 m²)

Expand to show TLE details & history
Last TLE update: 15 hours ago

TLE from 15 hours ago
0 STARLINK-35378
1 65794U 25218D   26171.21491036  .00002580  00000-0  18262-3 0  9999
2 65794  97.3370  32.8654 0002252  78.6962 281.4518 15.05667438 40399
Epoch: 2026-06-20T05:09Z
TLE epoch observation values (Epoch: 2026-06-20T05:09:28.255Z)
Latitude
-0.00005°
Longitude
47.06494°
Altitude
552.221 km
Speed
7.586 km/s
True Right ascension
02h 11m 27s
True Declination
0° 00' 00"
Sunlit
Object was in daylight at epoch
Visualization orbit readout
Latitude
Unknown
Longitude
Unknown
Altitude
Unknown
Speed
Unknown
Apparent Right ascension
Unknown
Apparent Declination
Unknown
Sunlit
N/A
Visualization observer readout
Local Sidereal Time
07:22:45
Azimuth
Unknown
Elevation
Unknown
Doppler factor
Unknown
Orbital elements
Apogee altitude
547.999 km
Perigee altitude
544.88 km
Semi-major axis
6,924.577 km
Eccentricity
0.00023
Inclination
97.337°
RAAN
32.8654°
Arg. of periapsis
78.6962°
True anomaly
281.42651°
Mean anomaly
281.4518°
Eccentric anomaly
281.43915°
Mean motion
3.76663 °/min
Orbital period
95.58 mins
BSTAR
0.00018262
Loading maneuver chart data...
Computing Atmospheric mass density...
Loading historical data...
Loading historical data...
Loading historical data...
Loading historical data...
Loading historical data...
Loading historical data...
Loading historical data...

Documentation

Showing up to 5 results
|